This is the latest recevied weather packets stored in our database for station/object VA2DG-13. If no packets are shown the sender has not sent any weather packets the latest 10 day(s).
| Time | Temp. | Humidity | Pressure | Rain* | Wind** | Luminosity | Snow |
|---|---|---|---|---|---|---|---|
| 1777776911 | 5.56° C | 76% | 1010.3 hPa | 0 mm | - | - | - |
| 1777774811 | 5.56° C | 77% | 1010.5 hPa | 0 mm | - | - | - |
| 1777774511 | 6.11° C | 77% | 1010.6 hPa | 0 mm | - | - | - |
| 1777773911 | 6.11° C | 77% | 1010.6 hPa | 0 mm | - | - | - |
| 1777765811 | 7.22° C | 77% | 1009.9 hPa | 0 mm | - | - | - |
| 1777764611 | 7.78° C | 73% | 1009.7 hPa | 0 mm | - | - | - |
| 1777762811 | 7.78° C | 75% | 1009.7 hPa | 0 mm | - | - | - |
| 1777762511 | 7.78° C | 74% | 1009.5 hPa | 0 mm | - | - | - |
| 1777762211 | 7.78° C | 74% | 1009.6 hPa | 0 mm | - | - | - |
| 1777761911 | 7.78° C | 73% | 1009.6 hPa | 0 mm | - | - | - |
| 1777759811 | 8.33° C | 72% | 1009.6 hPa | 0 mm | - | - | - |
| 1777759511 | 8.33° C | 72% | 1009.6 hPa | 0 mm | - | - | - |
| 1777758911 | 7.78° C | 72% | 1009.7 hPa | 0 mm | - | - | - |
| 1777755011 | 7.78° C | 72% | 1009.7 hPa | 0 mm | - | - | - |
| 1777753511 | 7.22° C | 76% | 1009.6 hPa | 0.25 mm | - | - | - |
| 1777750812 | 6.67° C | 77% | 1010.1 hPa | 0.76 mm | - | - | - |
| 1777750212 | 6.11° C | 77% | 1010 hPa | 1.27 mm | - | - | - |
| 1777746012 | 8.89° C | 61% | 1009.8 hPa | 0 mm | - | - | - |
| 1777745411 | 9.44° C | 62% | 1009.6 hPa | 0 mm | - | - | - |
| 1777744811 | 9.44° C | 61% | 1009.4 hPa | 0 mm | - | - | - |
| 1777743611 | 8.89° C | 61% | 1009.4 hPa | 0 mm | - | - | - |
| 1777742411 | 9.44° C | 61% | 1009.5 hPa | 0 mm | - | - | - |
| 1777741811 | 9.44° C | 63% | 1009.7 hPa | 0 mm | - | - | - |
| 1777741511 | 8.89° C | 64% | 1009.7 hPa | 0 mm | - | - | - |
| 1777737911 | 7.22° C | 72% | 1010.2 hPa | 0 mm | - | - | - |
* Rain latest hour (hover to see other rain measurements)
** Current wind speed in m/s (hover to see current wind gust speed)